[[{"header":{"parameterUnit":"m.s-1","parameterCategory":2,"la1":30.2991,"la2":30.254,"lo1":-89.0895,"lo2":-89.0444,"dy":0.0017,"dx":0.0017,"nx":28,"ny":28,"refTime":"2025-04-12T21:00:00:Z","depth":"0","parameterNumber":2,"parameterNumberName":"U-component_of_CURRENTS"},"data":[0,0,0,0,0,0,0,0,0,0,0,0,0,0,0,0,0,0,0,0,0,0,0,0,0,0,0,0,0,0,0,0,0,0,0,0,0,0,0,0,0,0,0,0,0,0,0,0,0,0,0,0,0,0,0,0,0,0,-0.1978,-0.198,0,-0.2074,-0.2075,-0.2075,-0.2042,-0.2041,-0.204,-0.2038,-0.197,-0.197,-0.1969,0,0,0,0,0,0,0,0,0,0,0,0,0,-0.1741,-0.1745,-0.1978,-0.198,-0.1982,-0.2074,-0.2075,-0.2075,-0.2043,-0.2041,-0.2039,-0.2038,-0.197,-0.197,-0.1969,0,0,0,0,0,0,0,0,0,0,0,0,0,-0.1833,-0.1746,-0.1978,-0.1983,-0.1985,-0.2074,-0.2075,-0.2075,-0.2043,-0.2041,-0.2039,-0.2037,-0.1971,-0.197,-0.1969,-0.2005,0,0,-0.1967,-0.1966,0,0,0,0,0,0,0,0,-0.1828,-0.1841,-0.198,-0.1983,-0.1985,-0.2051,-0.1967,-0.2046,-0.2043,-0.2012,-0.2038,-0.2036,-0.1989,-0.1987,-0.2,-0.2002,-0.1999,-0.1966,-0.1966,-0.1966,-0.1965,0,0,0,0,0,0,0,-0.1822,-0.1837,-0.2008,-0.1982,-0.1986,-0.1972,-0.1982,-0.1981,-0.2001,-0.2015,-0.2015,-0.2039,-0.1988,-0.2001,-0.1998,-0.1998,-0.1966,-0.1966,-0.1965,-0.1965,-0.1965,-0.1966,0,0,0,0,0,0,-0.1831,-0.1832,-0.2005,-0.2011,-0.1909,-0.1979,-0.199,-0.2025,-0.2005,-0.2004,-0.2041,-0.2037,-0.2003,-0.1999,-0.1995,-0.2003,-0.1966,-0.1965,-0.1964,-0.1965,-0.1965,-0.1966,0,0,0,0,0,0,-0.1826,-0.1846,-0.2001,-0.1929,-0.1948,-0.1986,-0.2026,-0.2029,-0.2043,-0.2028,-0.2021,-0.2053,-0.2002,-0.1996,-0.1983,-0.2001,-0.1965,-0.1964,-0.1964,-0.1965,-0.1965,-0.2039,0,0,0,0,0,0,-0.1819,-0.1844,-0.1865,-0.193,-0.1953,-0.2059,-0.2029,-0.2032,-0.2065,-0.2061,-0.2037,-0.2028,-0.1999,-0.1985,-0.1983,-0.1999,-0.1963,-0.1963,-0.1964,-0.1965,-0.2036,-0.2043,-0.2048,0,0,0,0,0,-0.181,-0.1874,-0.1866,-0.1887,-0.1985,-0.2061,-0.2071,-0.2083,-0.2068,-0.2085,-0.2054,-0.2029,-0.1988,-0.1985,-0.1982,-0.1999,-0.1963,-0.1964,-0.1965,-0.2034,-0.2041,-0.2048,0,0,0,0,0,0,-0.1788,-0.1879,-0.1871,-0.1958,-0.1999,-0.2058,-0.2095,-0.2095,-0.2091,-0.2077,-0.2042,-0.2033,-0.2028,-0.2004,-0.2001,-0.1999,-0.197,-0.1971,-0.2023,-0.203,-0.2036,-0.2072,-0.1962,0,0,0,0,0,-0.1793,-0.1861,-0.1922,-0.1988,-0.2015,-0.2049,-0.208,-0.2086,-0.2101,-0.2098,-0.208,-0.2053,-0.2035,-0.2024,-0.2008,-0.2015,-0.2016,-0.202,-0.2026,-0.2031,-0.2057,-0.2067,-0.2077,-0.1969,-0.1969,-0.1969,0,0,-0.1801,-0.1864,-0.1897,-0.1986,-0.2022,-0.2076,-0.2061,-0.2121,-0.2145,-0.2091,-0.2109,-0.2078,-0.2042,-0.2041,-0.2037,-0.2021,-0.2062,-0.2032,-0.2037,-0.2061,-0.2069,-0.208,-0.209,-0.197,-0.197,-0.197,0,0,-0.1865,-0.1908,-0.1977,-0.2019,-0.2086,-0.2108,-0.2126,-0.2176,-0.2174,-0.219,-0.215,-0.2134,-0.2114,-0.2095,-0.208,-0.2112,-0.2095,-0.2097,-0.2156,-0.2165,-0.2174,-0.2183,-0.2204,-0.2214,-0.2097,-0.2097,-0.2097,0,-0.1861,-0.1962,-0.2004,-0.2076,-0.212,-0.2125,-0.2187,-0.2199,-0.2226,-0.2231,-0.2199,-0.2182,-0.2146,-0.2151,-0.2153,-0.2129,-0.2134,-0.2133,-0.2175,-0.2183,-0.2191,-0.221,-0.222,-0.2101,-0.21,-0.21,-0.2099,0,-0.1968,-0.2037,-0.2091,-0.2173,-0.2218,-0.2281,-0.2304,-0.232,-0.231,-0.2314,-0.2317,-0.2271,-0.2263,-0.224,-0.2205,-0.2237,-0.2224,-0.2185,-0.2164,-0.2207,-0.2224,-0.2233,-0.2106,-0.2105,-0.2103,-0.2103,0,0,-0.1965,-0.2133,-0.214,-0.219,-0.2273,-0.2319,-0.2364,-0.2407,-0.2434,-0.2419,-0.246,-0.2412,-0.2389,-0.2371,-0.2324,-0.2324,-0.237,-0.2282,-0.2281,-0.2316,-0.2406,-0.2351,-0.2355,-0.2336,-0.2338,-0.234,-0.2399,0,-0.2019,-0.2172,-0.2239,-0.2341,-0.2409,-0.2436,-0.2479,-0.2505,-0.2512,-0.2545,-0.25,-0.2504,-0.2437,-0.2426,-0.2425,-0.2377,-0.2396,-0.2359,-0.2349,-0.235,-0.2305,-0.2364,-0.2224,-0.2261,-0.2408,-0.241,-0.2411,0,-0.2063,-0.2173,-0.2293,-0.2426,-0.2456,-0.2503,-0.257,-0.2613,-0.2648,-0.2651,-0.2657,-0.263,-0.2625,-0.2559,-0.2538,-0.2516,-0.2486,-0.2449,-0.2449,-0.2384,-0.2311,-0.2239,-0.2272,-0.2252,-0.2424,-0.2423,-0.2422,0,-0.2006,-0.2188,-0.2285,-0.2331,-0.2478,-0.2517,-0.2579,-0.263,-0.2657,-0.2715,-0.2728,-0.2738,-0.2719,-0.2695,-0.2609,-0.2583,-0.2591,-0.2541,-0.2477,-0.2472,-0.2346,-0.2328,-0.2369,-0.2564,-0.2564,-0.2563,-0.2563,0,-0.2016,-0.2079,-0.2265,-0.2312,-0.24,-0.2508,-0.2572,-0.2629,-0.2706,-0.2715,-0.2769,-0.2763,-0.2749,-0.2734,-0.2674,-0.2603,-0.2643,-0.2518,-0.2492,-0.2366,-0.235,-0.2318,-0.2319,-0.2566,-0.2565,-0.2565,-0.2564,0,-0.19,-0.2032,-0.2142,-0.2325,-0.2366,-0.2417,-0.2545,-0.2569,-0.2675,-0.2695,-0.2707,-0.2785,-0.2761,-0.2748,-0.2713,-0.2663,-0.2559,-0.258,-0.2444,-0.24,-0.2311,-0.232,-0.2337,-0.2279,-0.2538,-0.2537,-0.2536,0,-0.1863,-0.1909,-0.21,-0.2129,-0.2201,-0.2298,-0.2324,-0.2494,-0.2512,-0.2658,-0.2633,-0.2702,-0.2673,-0.2666,-0.2608,-0.2558,-0.2513,-0.2414,-0.2339,-0.232,-0.2311,-0.2307,-0.2256,-0.2206,-0.2202,-0.22,-0.2197,0,-0.1757,-0.181,-0.1884,-0.1972,-0.2022,-0.2095,-0.2167,-0.2204,-0.2358,-0.2414,-0.2465,-0.2497,-0.2533,-0.2455,-0.2453,-0.2379,-0.2341,-0.2356,-0.2361,-0.2095,-0.2068,-0.1991,-0.2174,-0.2173,-0.2175,-0.2177,-0.2178,-0.2179,-0.1624,-0.1639,-0.172,-0.1782,-0.1832,-0.1862,-0.1876,-0.1963,-0.2028,-0.2115,-0.2225,-0.2264,-0.229,-0.2271,-0.2233,-0.2132,-0.2173,-0.2036,-0.2064,-0.2076,-0.1974,-0.2122,-0.2068,-0.207,-0.2071,-0.2073,-0.2074,0,-0.148,-0.1494,-0.1522,-0.16,-0.1584,-0.168,-0.1723,-0.1719,-0.175,-0.1881,-0.194,-0.1998,-0.1955,-0.1996,-0.1942,-0.1867,-0.1811,-0.1811,-0.1767,-0.1738,-0.1878,-0.1815,-0.1671,-0.1671,-0.1671,-0.1671,-0.1671,-0.1671,-0.1397,-0.1365,-0.1396,-0.1342,-0.1369,-0.1326,-0.133,-0.1357,-0.1427,-0.1515,-0.1617,-0.1746,-0.1792,-0.1901,-0.1812,-0.1721,-0.168,-0.1602,-0.1671,-0.1759,-0.1782,-0.1804,-0.1745,-0.1589,-0.1589,-0.1433,-0.1432,-0.1431]},{"header":{"parameterUnit":"m.s-1","parameterCategory":2,"la1":30.2991,"la2":30.254,"lo1":-89.0895,"lo2":-89.0444,"dy":0.0017,"dx":0.0017,"nx":28,"ny":28,"refTime":"2025-04-12T21:00:00:Z","depth":"0","parameterNumber":3,"parameterNumberName":"V-component_of_CURRENTS"},"data":[0,0,0,0,0,0,0,0,0,0,0,0,0,0,0,0,0,0,0,0,0,0,0,0,0,0,0,0,0,0,0,0,0,0,0,0,0,0,0,0,0,0,0,0,0,0,0,0,0,0,0,0,0,0,0,0,0,0,0.0129,0.013,0,0.0276,0.0278,0.0279,0.0288,0.0286,0.0285,0.0283,0.0368,0.0371,0.0375,0,0,0,0,0,0,0,0,0,0,0,0,0,0.0044,0.0044,0.0128,0.013,0.0132,0.0276,0.0278,0.028,0.0288,0.0286,0.0284,0.0282,0.0367,0.0371,0.0376,0,0,0,0,0,0,0,0,0,0,0,0,0,0.0124,0.0044,0.0128,0.0154,0.0158,0.0275,0.0278,0.028,0.0289,0.0286,0.0284,0.0281,0.0365,0.0371,0.0376,0.0462,0,0,0.0394,0.0396,0,0,0,0,0,0,0,0,0.0119,0.0127,0.0148,0.0152,0.0157,0.0261,0.0279,0.0338,0.0289,0.0239,0.0283,0.028,0.0328,0.0337,0.0371,0.0466,0.0469,0.0394,0.0398,0.04,0.0402,0,0,0,0,0,0,0,0.0113,0.0122,0.0187,0.015,0.0156,0.0223,0.023,0.0291,0.0294,0.0243,0.0244,0.0262,0.033,0.0365,0.0373,0.047,0.0394,0.0399,0.0403,0.0405,0.0548,0.0548,0,0,0,0,0,0,0.0088,0.0116,0.0182,0.0191,0.0132,0.0226,0.0234,0.023,0.0295,0.0303,0.0264,0.0261,0.0357,0.0366,0.0376,0.0399,0.04,0.0405,0.0409,0.0547,0.0548,0.0548,0,0,0,0,0,0,0.0086,0.0092,0.0176,0.0158,0.0173,0.0228,0.0226,0.0234,0.0265,0.0312,0.0318,0.0284,0.0355,0.0368,0.0419,0.0405,0.0408,0.0413,0.0547,0.0548,0.0548,0.0499,0,0,0,0,0,0,0.0082,0.009,0.0086,0.0156,0.0173,0.0245,0.0228,0.0239,0.028,0.0278,0.0332,0.0337,0.0354,0.041,0.0424,0.0413,0.0418,0.0547,0.0547,0.0548,0.05,0.0498,0.0496,0,0,0,0,0,0.0078,0.0083,0.0084,0.0093,0.0163,0.0247,0.0263,0.0294,0.0283,0.031,0.0331,0.0335,0.0423,0.0417,0.0433,0.0422,0.0546,0.0547,0.0548,0.0501,0.0498,0.0496,0,0,0,0,0,0,0.0047,0.0086,0.0089,0.0104,0.0169,0.0248,0.0281,0.0302,0.0346,0.0334,0.0363,0.0373,0.0407,0.0435,0.0426,0.0465,0.0478,0.0482,0.0436,0.0434,0.0432,0.0407,0.0422,0,0,0,0,0,0.0038,0.0044,0.0108,0.0122,0.0155,0.0219,0.0258,0.0279,0.0328,0.0345,0.038,0.0406,0.0431,0.0446,0.0485,0.0528,0.0541,0.0525,0.0523,0.0521,0.0512,0.0535,0.0533,0.0551,0.0551,0.0551,0,0,0.0027,0.0054,0.0055,0.0117,0.0169,0.0209,0.0236,0.0295,0.0307,0.035,0.038,0.0415,0.0444,0.0472,0.0488,0.0488,0.0522,0.0522,0.0519,0.0512,0.0535,0.0533,0.0532,0.0552,0.0552,0.0551,0,0,0.003,0.004,0.0056,0.0104,0.0178,0.0214,0.0228,0.0308,0.0321,0.0373,0.0381,0.0407,0.0474,0.0474,0.0483,0.0501,0.0516,0.0511,0.0475,0.0497,0.0495,0.0494,0.05,0.05,0.0501,0.0501,0.0501,0,0.0014,0.0028,0.0081,0.0118,0.0141,0.0207,0.0229,0.0269,0.0347,0.0354,0.037,0.0438,0.0465,0.0468,0.0459,0.0493,0.0507,0.0478,0.0492,0.0491,0.049,0.0498,0.0498,0.0499,0.0499,0.0499,0.05,0,0.0035,0.0044,0.0067,0.0106,0.0149,0.0184,0.0236,0.0268,0.029,0.0322,0.0355,0.0405,0.0433,0.0443,0.0455,0.0455,0.0468,0.0491,0.0492,0.0485,0.0494,0.0495,0.0496,0.0497,0.0497,0.0498,0,0,-0.0022,0.0057,0.0057,0.0063,0.0132,0.0164,0.0186,0.0221,0.0223,0.029,0.0297,0.0336,0.0368,0.038,0.0405,0.0418,0.0421,0.0445,0.0447,0.0439,0.0461,0.0468,0.047,0.045,0.045,0.045,0.0465,0,-0.0035,-0.0005,0.0046,0.0056,0.0066,0.0122,0.0135,0.0172,0.0211,0.0244,0.0282,0.0311,0.034,0.0354,0.0372,0.0418,0.0424,0.0414,0.048,0.0481,0.0479,0.0472,0.0492,0.0508,0.0466,0.0466,0.0466,0,-0.0054,-0.0038,-0.0033,-0.0003,0.001,0.0028,0.0042,0.0073,0.0129,0.0161,0.0202,0.0255,0.028,0.0316,0.0372,0.0368,0.0402,0.0436,0.0439,0.0462,0.0491,0.0512,0.0512,0.0668,0.0468,0.0468,0.0468,0,-0.0159,-0.0107,-0.0122,-0.0108,-0.005,-0.0047,-0.0019,0.0034,0.0044,0.011,0.0122,0.0194,0.0211,0.0282,0.0349,0.0365,0.0414,0.0449,0.0484,0.0484,0.0522,0.0526,0.0669,0.048,0.048,0.048,0.0479,0,-0.0227,-0.0236,-0.0173,-0.0184,-0.0205,-0.0129,-0.0136,-0.0093,-0.0037,-0.0044,0.0066,0.0064,0.0203,0.0254,0.0332,0.0402,0.0399,0.047,0.0489,0.0505,0.0507,0.0662,0.0721,0.048,0.048,0.048,0.048,0,-0.0339,-0.0295,-0.0312,-0.0267,-0.0257,-0.0274,-0.0221,-0.0222,-0.0155,-0.016,-0.0147,-0.0044,0.0025,0.0156,0.0266,0.0357,0.0518,0.0462,0.0464,0.0483,0.068,0.0734,0.0845,0.0899,0.052,0.0521,0.0521,0,-0.0388,-0.041,-0.0397,-0.0411,-0.0391,-0.039,-0.0391,-0.0309,-0.0308,-0.0251,-0.0274,-0.0189,-0.0153,0.0034,0.023,0.0391,0.0496,0.0505,0.0544,0.0689,0.0764,0.0798,0.0838,0.0573,0.0573,0.0574,0.0574,0,-0.0485,-0.0482,-0.0489,-0.053,-0.0542,-0.0551,-0.0542,-0.0557,-0.048,-0.0487,-0.0483,-0.044,-0.0232,-0.0015,0.0235,0.0335,0.0618,0.052,0.0682,0.082,0.0856,0.0918,0.0555,0.0579,0.0578,0.0578,0.0578,0.0578,-0.0549,-0.0583,-0.0593,-0.0631,-0.0657,-0.0693,-0.0706,-0.0707,-0.0726,-0.0701,-0.0652,-0.0541,-0.0166,0.0197,0.0317,0.0671,0.0638,0.0798,0.0849,0.0869,0.0934,0.0569,0.0609,0.0609,0.0608,0.0608,0.0608,0,-0.0609,-0.0634,-0.0684,-0.0721,-0.0776,-0.076,-0.0789,-0.0792,-0.0838,-0.078,-0.0754,-0.0348,0.0001,0.0372,0.085,0.1029,0.1058,0.1118,0.12,0.1224,0.0922,0.0941,0.1042,0.1042,0.1041,0.1041,0.1041,0.1041,-0.0634,-0.0687,-0.0713,-0.0807,-0.084,-0.0889,-0.0907,-0.0918,-0.086,-0.0724,-0.0501,-0.0324,0.0214,0.096,0.1392,0.1413,0.156,0.1522,0.1599,0.1441,0.1416,0.1393,0.1429,0.1631,0.1631,0.1893,0.1895,0.1898]}],[{"header":{"parameterUnit":"m.s-1","parameterCategory":2,"la1":30.2991,"la2":30.254,"lo1":-89.0895,"lo2":-89.0444,"dy":0.0017,"dx":0.0017,"nx":28,"ny":28,"refTime":"2025-04-12T21:00:00:Z","depth":"2","parameterNumber":2,"parameterNumberName":"U-component_of_CURRENTS"},"data":[0,0,0,0,0,0,0,0,0,0,0,0,0,0,0,0,0,0,0,0,0,0,0,0,0,0,0,0,0,0,0,0,0,0,0,0,0,0,0,0,0,0,0,0,0,0,0,0,0,0,0,0,0,0,0,0,0,0,-0.1651,-0.1652,0,-0.1791,-0.1792,-0.1794,-0.1784,-0.1782,-0.178,-0.1778,-0.1756,-0.1757,-0.1758,0,0,0,0,0,0,0,0,0,0,0,0,0,-0.1478,-0.148,-0.1651,-0.1653,-0.1654,-0.179,-0.1792,-0.1794,-0.1784,-0.1782,-0.178,-0.1777,-0.1755,-0.1757,-0.1758,0,0,0,0,0,0,0,0,0,0,0,0,0,-0.1577,-0.1481,-0.165,-0.1667,-0.167,-0.179,-0.1792,-0.1795,-0.1785,-0.1782,-0.1779,-0.1776,-0.1755,-0.1756,-0.1758,-0.1828,0,0,-0.1764,-0.1765,0,0,0,0,0,0,0,0,-0.1572,-0.1584,-0.1663,-0.1666,-0.1669,-0.1768,-0.1723,-0.1798,-0.1786,-0.174,-0.1778,-0.1775,-0.1748,-0.175,-0.1783,-0.1827,-0.1826,-0.1764,-0.1765,-0.1766,-0.1766,0,0,0,0,0,0,0,-0.1565,-0.1578,-0.1705,-0.1665,-0.1669,-0.1703,-0.1712,-0.1739,-0.1754,-0.1744,-0.1744,-0.1762,-0.1748,-0.1782,-0.1782,-0.1826,-0.1764,-0.1766,-0.1767,-0.1767,-0.1833,-0.1834,0,0,0,0,0,0,-0.1548,-0.1572,-0.17,-0.1709,-0.1614,-0.1708,-0.1719,-0.1738,-0.1758,-0.176,-0.1764,-0.1761,-0.178,-0.178,-0.1781,-0.1808,-0.1766,-0.1768,-0.1769,-0.1833,-0.1833,-0.1834,0,0,0,0,0,0,-0.1544,-0.1559,-0.1695,-0.1644,-0.1664,-0.1713,-0.1736,-0.1743,-0.1776,-0.1776,-0.1773,-0.179,-0.1778,-0.1778,-0.1792,-0.1808,-0.1768,-0.177,-0.1832,-0.1833,-0.1834,-0.1897,0,0,0,0,0,0,-0.1539,-0.1556,-0.157,-0.1643,-0.1666,-0.1767,-0.1739,-0.1748,-0.1792,-0.1789,-0.1797,-0.1792,-0.1776,-0.179,-0.1794,-0.181,-0.1772,-0.1831,-0.1832,-0.1833,-0.1894,-0.19,-0.1905,0,0,0,0,0,-0.1532,-0.1573,-0.157,-0.1586,-0.1682,-0.1769,-0.1785,-0.1809,-0.1796,-0.1825,-0.1814,-0.1792,-0.1799,-0.1793,-0.1798,-0.1814,-0.183,-0.1832,-0.1833,-0.1891,-0.1898,-0.1904,0,0,0,0,0,0,-0.1514,-0.1578,-0.1576,-0.1634,-0.1692,-0.1767,-0.1805,-0.1823,-0.1847,-0.1828,-0.1817,-0.1814,-0.1828,-0.1817,-0.1811,-0.1833,-0.1806,-0.1808,-0.1848,-0.1855,-0.186,-0.1882,-0.1773,0,0,0,0,0,-0.1515,-0.1557,-0.1619,-0.1669,-0.1694,-0.175,-0.179,-0.1805,-0.1838,-0.1847,-0.1855,-0.1847,-0.1846,-0.1844,-0.1848,-0.1878,-0.1879,-0.1884,-0.189,-0.1895,-0.1914,-0.1913,-0.1921,-0.1839,-0.1839,-0.1839,0,0,-0.1521,-0.1566,-0.1587,-0.1667,-0.1711,-0.1766,-0.1767,-0.1829,-0.1863,-0.184,-0.1883,-0.1876,-0.1858,-0.1878,-0.1882,-0.1866,-0.1923,-0.1896,-0.1901,-0.1918,-0.1916,-0.1924,-0.1931,-0.184,-0.184,-0.184,0,0,-0.1558,-0.1594,-0.163,-0.1698,-0.1767,-0.1789,-0.1807,-0.188,-0.1892,-0.1942,-0.1914,-0.1922,-0.1945,-0.1932,-0.1925,-0.1969,-0.1954,-0.196,-0.2007,-0.2006,-0.2013,-0.2019,-0.2054,-0.2062,-0.1959,-0.1959,-0.1959,0,-0.1557,-0.1625,-0.1659,-0.1732,-0.1794,-0.1798,-0.1863,-0.1885,-0.195,-0.196,-0.1951,-0.1982,-0.1972,-0.1981,-0.1993,-0.1984,-0.199,-0.1984,-0.2014,-0.202,-0.2026,-0.2059,-0.2068,-0.1962,-0.1962,-0.1961,-0.1961,0,-0.1632,-0.1696,-0.1738,-0.181,-0.1869,-0.1941,-0.1971,-0.1991,-0.1997,-0.202,-0.2047,-0.2046,-0.2058,-0.2054,-0.2044,-0.207,-0.2068,-0.2025,-0.2001,-0.2038,-0.2071,-0.2079,-0.1967,-0.1966,-0.1965,-0.1964,0,0,-0.1602,-0.1753,-0.1767,-0.1831,-0.1929,-0.1985,-0.2013,-0.2049,-0.2062,-0.2095,-0.2119,-0.2143,-0.214,-0.2134,-0.2116,-0.2125,-0.2179,-0.2102,-0.21,-0.2144,-0.2208,-0.214,-0.2142,-0.2136,-0.2137,-0.2138,-0.2225,0,-0.1645,-0.1772,-0.1846,-0.1967,-0.2032,-0.2079,-0.2117,-0.2143,-0.2145,-0.2157,-0.2139,-0.2158,-0.2165,-0.2168,-0.2183,-0.2161,-0.22,-0.2162,-0.216,-0.2161,-0.2101,-0.2148,-0.1955,-0.2009,-0.2233,-0.2234,-0.2235,0,-0.1684,-0.1769,-0.1881,-0.2044,-0.2078,-0.2137,-0.2188,-0.2235,-0.2223,-0.2232,-0.2235,-0.2214,-0.223,-0.2216,-0.2254,-0.2227,-0.2247,-0.2242,-0.2244,-0.2165,-0.2106,-0.2002,-0.2014,-0.2248,-0.2247,-0.2246,-0.2245,0,-0.162,-0.1804,-0.1883,-0.1956,-0.2105,-0.2149,-0.2209,-0.2236,-0.224,-0.226,-0.2238,-0.2273,-0.2242,-0.2285,-0.2293,-0.2274,-0.2324,-0.228,-0.2256,-0.2253,-0.2081,-0.2059,-0.2337,-0.2337,-0.2337,-0.2337,-0.2337,0,-0.1645,-0.1723,-0.1861,-0.1924,-0.2003,-0.2136,-0.2181,-0.2235,-0.2249,-0.2248,-0.2267,-0.2251,-0.2252,-0.226,-0.2309,-0.2312,-0.2344,-0.2291,-0.2268,-0.2099,-0.2079,-0.2268,-0.2259,-0.234,-0.2339,-0.2339,-0.2338,0,-0.1565,-0.1662,-0.177,-0.1932,-0.197,-0.2025,-0.2134,-0.2147,-0.2201,-0.218,-0.2177,-0.2191,-0.2225,-0.225,-0.2297,-0.2292,-0.2332,-0.2338,-0.216,-0.2115,-0.2267,-0.2261,-0.2312,-0.231,-0.2308,-0.2307,-0.2306,0,-0.1542,-0.1577,-0.1726,-0.1752,-0.1825,-0.1911,-0.194,-0.2068,-0.208,-0.2154,-0.2123,-0.2143,-0.2144,-0.2192,-0.2201,-0.2264,-0.2321,-0.2111,-0.2032,-0.2291,-0.2265,-0.226,-0.2255,-0.1849,-0.1844,-0.184,-0.1837,0,-0.1479,-0.151,-0.1577,-0.1624,-0.1675,-0.1742,-0.1821,-0.1821,-0.196,-0.1966,-0.2016,-0.2034,-0.2064,-0.2005,-0.2049,-0.2059,-0.2078,-0.2033,-0.2336,-0.1876,-0.1858,-0.1831,-0.1841,-0.1803,-0.1806,-0.1809,-0.1811,-0.1812,-0.139,-0.14,-0.1449,-0.1495,-0.1542,-0.1577,-0.1591,-0.1677,-0.1709,-0.1746,-0.1859,-0.1853,-0.1868,-0.1821,-0.1803,-0.1771,-0.1911,-0.1822,-0.1833,-0.1847,-0.1769,-0.1747,-0.1661,-0.1663,-0.1665,-0.1667,-0.1669,0,-0.1277,-0.1293,-0.132,-0.1372,-0.1374,-0.1446,-0.1497,-0.1495,-0.1524,-0.1585,-0.1628,-0.1517,-0.149,-0.1527,-0.144,-0.145,-0.1418,-0.1375,-0.1323,-0.1357,-0.1388,-0.1284,-0.1049,-0.1048,-0.1046,-0.1044,0,0,-0.121,-0.1186,-0.1211,-0.1187,-0.1216,-0.1192,-0.1201,-0.1228,-0.1258,-0.1262,-0.1264,-0.1383,-0.146,-0.1243,-0.1211,-0.1116,-0.1213,-0.1053,-0.1547,-0.1516,-0.1544,-0.1642,-0.1521,0,0,0,0,0]},{"header":{"parameterUnit":"m.s-1","parameterCategory":2,"la1":30.2991,"la2":30.254,"lo1":-89.0895,"lo2":-89.0444,"dy":0.0017,"dx":0.0017,"nx":28,"ny":28,"refTime":"2025-04-12T21:00:00:Z","depth":"2","parameterNumber":3,"parameterNumberName":"V-component_of_CURRENTS"},"data":[0,0,0,0,0,0,0,0,0,0,0,0,0,0,0,0,0,0,0,0,0,0,0,0,0,0,0,0,0,0,0,0,0,0,0,0,0,0,0,0,0,0,0,0,0,0,0,0,0,0,0,0,0,0,0,0,0,0,-0.0034,-0.0033,0,0.0091,0.0093,0.0095,0.0132,0.0131,0.0129,0.0128,0.0258,0.0263,0.0267,0,0,0,0,0,0,0,0,0,0,0,0,0,-0.0046,-0.0047,-0.0034,-0.0033,-0.0032,0.009,0.0093,0.0095,0.0132,0.0131,0.0129,0.0128,0.0257,0.0262,0.0268,0,0,0,0,0,0,0,0,0,0,0,0,0,0.0012,-0.0047,-0.0034,-0.0003,0.0,0.009,0.0093,0.0096,0.0132,0.0131,0.0129,0.0127,0.0255,0.0262,0.0268,0.0347,0,0,0.0289,0.0292,0,0,0,0,0,0,0,0,0.0008,0.0013,-0.0009,-0.0005,-0.0001,0.0088,0.0136,0.0178,0.0133,0.0089,0.0128,0.0126,0.0199,0.0211,0.0247,0.0353,0.0358,0.029,0.0294,0.0297,0.0299,0,0,0,0,0,0,0,0.0004,0.0009,0.0022,-0.0008,-0.0003,0.007,0.0076,0.0145,0.0157,0.0092,0.0094,0.0099,0.0202,0.024,0.025,0.036,0.029,0.0296,0.03,0.0303,0.0474,0.0475,0,0,0,0,0,0,-0.0032,0.0004,0.0017,0.0025,-0.0008,0.0071,0.0077,0.0067,0.0157,0.0167,0.01,0.01,0.0229,0.0242,0.0254,0.0301,0.0297,0.0303,0.0307,0.0474,0.0474,0.0475,0,0,0,0,0,0,-0.0033,-0.0032,0.0012,0.0014,0.0023,0.0071,0.006,0.007,0.0106,0.0161,0.0172,0.0125,0.0228,0.0245,0.0318,0.0308,0.0306,0.0313,0.0473,0.0474,0.0475,0.0427,0,0,0,0,0,0,-0.0034,-0.0034,-0.004,0.001,0.0022,0.0068,0.0062,0.0073,0.0109,0.011,0.0187,0.0197,0.0228,0.0308,0.0325,0.0317,0.0318,0.0473,0.0474,0.0474,0.0428,0.0426,0.0425,0,0,0,0,0,-0.0035,-0.0052,-0.0042,-0.004,0.0005,0.0069,0.0083,0.0116,0.0112,0.0141,0.0185,0.0194,0.0323,0.0315,0.0335,0.0329,0.0472,0.0473,0.0474,0.0429,0.0427,0.0425,0,0,0,0,0,0,-0.006,-0.0048,-0.0037,-0.0049,0.0009,0.0072,0.0092,0.0122,0.0184,0.0174,0.0226,0.0242,0.0295,0.033,0.0319,0.0379,0.039,0.0395,0.0349,0.0347,0.0345,0.032,0.0324,0,0,0,0,0,-0.0069,-0.0079,-0.0034,-0.0036,-0.0017,0.0044,0.0074,0.0099,0.0152,0.0177,0.0237,0.0282,0.032,0.0346,0.0399,0.0453,0.0471,0.0454,0.0452,0.045,0.0443,0.0473,0.0473,0.0478,0.0478,0.0478,0,0,-0.008,-0.0073,-0.0078,-0.004,-0.0001,0.0033,0.0059,0.0098,0.0124,0.0183,0.0247,0.0293,0.0336,0.0383,0.0407,0.0407,0.0458,0.0451,0.0449,0.0443,0.0474,0.0473,0.0473,0.0479,0.0479,0.0479,0,0,-0.0099,-0.0098,-0.0106,-0.0054,-0.0004,0.0026,0.0036,0.0112,0.0139,0.0215,0.0239,0.0282,0.0376,0.039,0.0406,0.0432,0.0452,0.0443,0.0411,0.044,0.0439,0.0439,0.0453,0.0454,0.0435,0.0435,0.0435,0,-0.0111,-0.0119,-0.0088,-0.006,-0.003,0.0017,0.004,0.0083,0.0178,0.02,0.0223,0.0332,0.037,0.0392,0.0388,0.0424,0.0444,0.0413,0.0435,0.0436,0.0436,0.045,0.0452,0.0433,0.0433,0.0433,0.0433,0,-0.0115,-0.0112,-0.0107,-0.0075,-0.0028,-0.0002,0.0053,0.0094,0.0128,0.0177,0.0236,0.0303,0.0355,0.0367,0.0385,0.0398,0.0412,0.0433,0.0435,0.0432,0.0448,0.0451,0.0429,0.043,0.0431,0.0431,0,0,-0.0178,-0.0129,-0.0126,-0.0109,-0.0037,-0.0006,0.0025,0.0069,0.008,0.0171,0.0203,0.0261,0.0298,0.0317,0.0349,0.0368,0.0381,0.0394,0.0397,0.0396,0.0437,0.0437,0.0441,0.041,0.041,0.0411,0.0444,0,-0.0195,-0.0184,-0.0137,-0.0108,-0.0101,-0.0033,-0.0004,0.0048,0.0095,0.0147,0.0194,0.0243,0.0275,0.0294,0.0321,0.0378,0.0388,0.037,0.0451,0.0453,0.0443,0.0444,0.0432,0.046,0.0447,0.0447,0.0447,0,-0.0213,-0.0213,-0.0207,-0.0153,-0.0139,-0.0108,-0.0068,-0.0024,0.0042,0.0084,0.0138,0.0196,0.0237,0.0267,0.0346,0.0336,0.0373,0.0413,0.0416,0.0433,0.0458,0.0465,0.0466,0.0452,0.0452,0.0452,0.0451,0,-0.0297,-0.0252,-0.0268,-0.0238,-0.0175,-0.016,-0.0124,-0.0056,-0.0039,0.0041,0.0051,0.0148,0.0163,0.0255,0.0328,0.0345,0.0412,0.0449,0.0479,0.0479,0.0493,0.0494,0.0487,0.0487,0.0487,0.0487,0.0487,0,-0.0342,-0.0342,-0.0313,-0.0313,-0.0322,-0.023,-0.0224,-0.0171,-0.0114,-0.0105,0.0002,0.0012,0.0157,0.0216,0.0315,0.0398,0.04,0.0469,0.0489,0.0476,0.0475,0.049,0.049,0.0488,0.0488,0.0488,0.0488,0,-0.0417,-0.0399,-0.0411,-0.0375,-0.0365,-0.0366,-0.0308,-0.03,-0.024,-0.0229,-0.0214,-0.0111,-0.0016,0.0117,0.0253,0.0344,0.0454,0.047,0.0436,0.0452,0.0509,0.0506,0.0539,0.0539,0.054,0.054,0.054,0,-0.0455,-0.0479,-0.0479,-0.0496,-0.0481,-0.0471,-0.0466,-0.0385,-0.0372,-0.0311,-0.0318,-0.0236,-0.0166,0.0037,0.0227,0.0408,0.0412,0.0485,0.0518,0.0499,0.0515,0.0512,0.0509,0.0517,0.0517,0.0517,0.0517,0,-0.0527,-0.0533,-0.0542,-0.0595,-0.0605,-0.0606,-0.0586,-0.0599,-0.051,-0.0501,-0.0458,-0.0394,-0.0202,0.0014,0.0237,0.0346,0.0475,0.049,0.0482,0.0502,0.048,0.0495,0.0492,0.0516,0.0516,0.0516,0.0516,0.0516,-0.0575,-0.0606,-0.0632,-0.0671,-0.0694,-0.0717,-0.0722,-0.0694,-0.0682,-0.0611,-0.0549,-0.0422,-0.022,0.0118,0.0281,0.045,0.046,0.0533,0.0533,0.0532,0.052,0.05,0.0537,0.0537,0.0537,0.0537,0.0538,0,-0.0625,-0.0651,-0.0699,-0.0741,-0.0786,-0.0776,-0.0782,-0.0771,-0.076,-0.0648,-0.0568,-0.0357,-0.0108,0.0098,0.0369,0.0525,0.0526,0.0546,0.0534,0.0533,0.0533,0.052,0.0537,0.0538,0.0538,0.0538,0,0,-0.065,-0.0702,-0.0726,-0.081,-0.0842,-0.0881,-0.0887,-0.086,-0.0783,-0.0676,-0.0542,-0.0339,-0.01,0.0095,0.0286,0.0424,0.0434,0.0429,0.0416,0.0379,0.0377,0.0516,0.0494,0,0,0,0,0]}],[{"header":{"parameterUnit":"m.s-1","parameterCategory":2,"la1":30.2991,"la2":30.254,"lo1":-89.0895,"lo2":-89.0444,"dy":0.0017,"dx":0.0017,"nx":28,"ny":28,"refTime":"2025-04-12T21:00:00:Z","depth":"4","parameterNumber":2,"parameterNumberName":"U-component_of_CURRENTS"},"data":[0,0,0,0,0,0,0,0,0,0,0,0,0,0,0,0,0,0,0,0,0,0,0,0,0,0,0,0,0,0,0,0,0,0,0,0,0,0,0,0,0,0,0,0,0,0,0,0,0,0,0,0,0,0,0,0,0,0,-0.098,-0.0979,0,-0.0914,-0.0913,-0.0912,-0.0948,-0.095,-0.0951,-0.0953,-0.0934,-0.0932,-0.093,0,0,0,0,0,0,0,0,0,0,0,0,0,-0.1001,-0.1001,-0.098,-0.0979,-0.0978,-0.0914,-0.0913,-0.0912,-0.0948,-0.095,-0.0952,-0.0954,-0.0935,-0.0932,-0.093,0,0,0,0,0,0,0,0,0,0,0,0,0,-0.0969,-0.1001,-0.098,-0.0988,-0.0988,-0.0914,-0.0913,-0.0912,-0.0947,-0.095,-0.0952,-0.0955,-0.0936,-0.0932,-0.0929,-0.0856,0,0,-0.0919,-0.0918,0,0,0,0,0,0,0,0,-0.0971,-0.0969,-0.0988,-0.0987,-0.0987,-0.0942,-0.0913,-0.0895,-0.0946,-0.0963,-0.0953,-0.0956,-0.0939,-0.0935,-0.0917,-0.0855,-0.0854,-0.0919,-0.0917,-0.0916,-0.0915,0,0,0,0,0,0,0,-0.0974,-0.0971,-0.0954,-0.0987,-0.0986,-0.0948,-0.0948,-0.0909,-0.0938,-0.0962,-0.0964,-0.0955,-0.094,-0.092,-0.0917,-0.0854,-0.0919,-0.0916,-0.0914,-0.0913,-0.0905,-0.0907,0,0,0,0,0,0,-0.0985,-0.0974,-0.0956,-0.0952,-0.0985,-0.0946,-0.0946,-0.0954,-0.0937,-0.0937,-0.0953,-0.0957,-0.0924,-0.092,-0.0916,-0.0945,-0.0916,-0.0913,-0.0911,-0.0904,-0.0906,-0.0908,0,0,0,0,0,0,-0.0986,-0.0985,-0.0959,-0.096,-0.0954,-0.0944,-0.0952,-0.0951,-0.0948,-0.093,-0.0932,-0.0953,-0.0926,-0.0921,-0.0922,-0.0941,-0.0911,-0.0908,-0.0902,-0.0904,-0.0907,-0.0928,0,0,0,0,0,0,-0.0988,-0.0986,-0.1,-0.0961,-0.0955,-0.0921,-0.0949,-0.0948,-0.0937,-0.0942,-0.0929,-0.093,-0.0928,-0.0927,-0.0919,-0.0936,-0.0906,-0.0899,-0.0903,-0.0906,-0.0925,-0.0931,-0.0936,0,0,0,0,0,-0.0989,-0.0981,-0.1002,-0.0999,-0.0974,-0.092,-0.0912,-0.0913,-0.0935,-0.0922,-0.0943,-0.0931,-0.0944,-0.0925,-0.0915,-0.0931,-0.0898,-0.0902,-0.0906,-0.0922,-0.0929,-0.0936,0,0,0,0,0,0,-0.0996,-0.0982,-0.1005,-0.0997,-0.0971,-0.0927,-0.0906,-0.0911,-0.0911,-0.0928,-0.0928,-0.0928,-0.0945,-0.0933,-0.0913,-0.0946,-0.0927,-0.0929,-0.0944,-0.095,-0.0955,-0.096,-0.0903,0,0,0,0,0,-0.1006,-0.1001,-0.098,-0.0975,-0.0957,-0.0936,-0.0918,-0.092,-0.0909,-0.0911,-0.0918,-0.0934,-0.0945,-0.0945,-0.0948,-0.0936,-0.0937,-0.0952,-0.0958,-0.0962,-0.0964,-0.0986,-0.0993,-0.0921,-0.0921,-0.0921,0,0,-0.1013,-0.0999,-0.1003,-0.0976,-0.0952,-0.0936,-0.0931,-0.0899,-0.0914,-0.0906,-0.0935,-0.0942,-0.0949,-0.0964,-0.0971,-0.0958,-0.0986,-0.0967,-0.097,-0.097,-0.0991,-0.0998,-0.1004,-0.0923,-0.0923,-0.0922,0,0,-0.099,-0.1003,-0.0985,-0.0963,-0.0931,-0.0926,-0.0922,-0.0897,-0.0915,-0.0924,-0.0951,-0.0973,-0.0969,-0.0993,-0.1,-0.103,-0.1015,-0.1037,-0.1058,-0.1079,-0.1084,-0.1089,-0.11,-0.1106,-0.1038,-0.1038,-0.1038,0,-0.1004,-0.0987,-0.0968,-0.0937,-0.0932,-0.0929,-0.0916,-0.0921,-0.0918,-0.0932,-0.0946,-0.0981,-0.0989,-0.1015,-0.1049,-0.104,-0.1046,-0.1025,-0.1084,-0.1088,-0.1093,-0.1103,-0.1109,-0.1039,-0.1039,-0.1039,-0.1039,0,-0.0953,-0.096,-0.0934,-0.0927,-0.0916,-0.0894,-0.0905,-0.0922,-0.0952,-0.0963,-0.0997,-0.1014,-0.1038,-0.1052,-0.1059,-0.1101,-0.1093,-0.1086,-0.1059,-0.1101,-0.111,-0.1116,-0.1042,-0.1041,-0.1041,-0.104,0,0,-0.0956,-0.0915,-0.0916,-0.0921,-0.0914,-0.0897,-0.0931,-0.0948,-0.0975,-0.0996,-0.1029,-0.1066,-0.1074,-0.1086,-0.1099,-0.1123,-0.1169,-0.1124,-0.1124,-0.1121,-0.1211,-0.1212,-0.1218,-0.1169,-0.1171,-0.1172,-0.1204,0,-0.0937,-0.09,-0.0888,-0.0892,-0.0887,-0.0904,-0.0935,-0.0959,-0.0992,-0.1027,-0.1051,-0.1085,-0.1087,-0.1109,-0.1132,-0.1166,-0.1186,-0.1161,-0.1183,-0.1184,-0.1168,-0.1226,-0.1175,-0.1208,-0.121,-0.1211,-0.1211,0,-0.0906,-0.0892,-0.0886,-0.0898,-0.0894,-0.0908,-0.096,-0.0978,-0.1025,-0.1048,-0.1077,-0.1098,-0.1149,-0.1146,-0.1202,-0.1185,-0.1204,-0.1221,-0.1222,-0.1218,-0.1196,-0.116,-0.1221,-0.1221,-0.122,-0.1219,-0.1218,0,-0.0926,-0.0902,-0.0907,-0.0905,-0.0913,-0.0931,-0.095,-0.0993,-0.1028,-0.107,-0.1115,-0.1134,-0.1191,-0.1201,-0.1262,-0.123,-0.1326,-0.1278,-0.1286,-0.1286,-0.1261,-0.1255,-0.1312,-0.1312,-0.1312,-0.1312,-0.1312,0,-0.092,-0.093,-0.0918,-0.0921,-0.0943,-0.0943,-0.0987,-0.1004,-0.1057,-0.1115,-0.1132,-0.1199,-0.1216,-0.1278,-0.1279,-0.1324,-0.1341,-0.1304,-0.1303,-0.127,-0.1266,-0.1264,-0.1258,-0.1313,-0.1313,-0.1312,-0.1312,0,-0.095,-0.0936,-0.0942,-0.0946,-0.0955,-0.0972,-0.1019,-0.1062,-0.11,-0.1186,-0.1213,-0.1277,-0.1355,-0.1378,-0.142,-0.1377,-0.1395,-0.1406,-0.1392,-0.1387,-0.132,-0.1315,-0.1374,-0.1375,-0.1375,-0.1376,-0.1376,0,-0.0945,-0.0956,-0.0969,-0.0981,-0.0986,-0.1018,-0.1064,-0.1093,-0.1146,-0.1246,-0.1302,-0.1398,-0.1443,-0.1479,-0.1496,-0.1486,-0.1476,-0.1446,-0.1353,-0.1338,-0.1331,-0.1325,-0.132,-0.1377,-0.1377,-0.1377,-0.1377,0,-0.0942,-0.0963,-0.0971,-0.1004,-0.104,-0.1079,-0.1137,-0.1173,-0.1234,-0.13,-0.1362,-0.1384,-0.1481,-0.1479,-0.1509,-0.1494,-0.1432,-0.1449,-0.1446,-0.1358,-0.1341,-0.1332,-0.1327,-0.1378,-0.1378,-0.1378,-0.1378,0,-0.0933,-0.0946,-0.0961,-0.0986,-0.1052,-0.1098,-0.1132,-0.1192,-0.1231,-0.133,-0.1366,-0.1443,-0.15,-0.1492,-0.1521,-0.1513,-0.146,-0.1365,-0.1365,-0.1363,-0.1347,-0.1323,-0.1368,0,0,0,0,0,-0.0885,-0.0894,-0.0934,-0.0944,-0.1035,-0.1051,-0.1162,-0.1202,-0.1287,-0.1319,-0.1321,-0.14,-0.1424,-0.1454,-0.144,-0.1519,-0.147,-0.1496,-0.1361,-0.1386,-0.1385,-0.1367,0,0,0,0,0,0,-0.0838,-0.0871,-0.09,-0.0916,-0.0931,-0.1004,-0.1069,-0.1135,-0.1142,-0.1231,-0.1255,-0.131,-0.1358,-0.1409,-0.1403,-0.1416,-0.1305,-0.1541,-0.1538,-0.1387,-0.1386,-0.1384,-0.1366,0,0,0,0,0]},{"header":{"parameterUnit":"m.s-1","parameterCategory":2,"la1":30.2991,"la2":30.254,"lo1":-89.0895,"lo2":-89.0444,"dy":0.0017,"dx":0.0017,"nx":28,"ny":28,"refTime":"2025-04-12T21:00:00:Z","depth":"4","parameterNumber":3,"parameterNumberName":"V-component_of_CURRENTS"},"data":[0,0,0,0,0,0,0,0,0,0,0,0,0,0,0,0,0,0,0,0,0,0,0,0,0,0,0,0,0,0,0,0,0,0,0,0,0,0,0,0,0,0,0,0,0,0,0,0,0,0,0,0,0,0,0,0,0,0,-0.0205,-0.0206,0,-0.0286,-0.0286,-0.0287,-0.0239,-0.0236,-0.0234,-0.0232,-0.0205,-0.0206,-0.0208,0,0,0,0,0,0,0,0,0,0,0,0,0,-0.0107,-0.0108,-0.0205,-0.0206,-0.0207,-0.0285,-0.0286,-0.0288,-0.0239,-0.0236,-0.0234,-0.0231,-0.0204,-0.0206,-0.0208,0,0,0,0,0,0,0,0,0,0,0,0,0,-0.0165,-0.0109,-0.0204,-0.0192,-0.0192,-0.0285,-0.0287,-0.0288,-0.024,-0.0236,-0.0233,-0.023,-0.0204,-0.0206,-0.0208,-0.0291,0,0,-0.0215,-0.0216,0,0,0,0,0,0,0,0,-0.0161,-0.0168,-0.0193,-0.0193,-0.0193,-0.0249,-0.0242,-0.0284,-0.0241,-0.0222,-0.0232,-0.0228,-0.0212,-0.0213,-0.0238,-0.029,-0.0289,-0.0215,-0.0216,-0.0217,-0.0218,0,0,0,0,0,0,0,-0.0157,-0.0165,-0.0237,-0.0194,-0.0194,-0.0216,-0.022,-0.0251,-0.0233,-0.0223,-0.022,-0.023,-0.0211,-0.0236,-0.0236,-0.0288,-0.0215,-0.0217,-0.0218,-0.0219,-0.0281,-0.0282,0,0,0,0,0,0,-0.0147,-0.0161,-0.0234,-0.0239,-0.0168,-0.022,-0.0224,-0.0234,-0.0235,-0.0233,-0.0233,-0.0227,-0.0234,-0.0234,-0.0235,-0.0243,-0.0217,-0.0219,-0.022,-0.0281,-0.0281,-0.0282,0,0,0,0,0,0,-0.0144,-0.0152,-0.0231,-0.0202,-0.0213,-0.0225,-0.0237,-0.0238,-0.0254,-0.0244,-0.0238,-0.0247,-0.0231,-0.0232,-0.0248,-0.0244,-0.022,-0.0222,-0.028,-0.0281,-0.0282,-0.0316,0,0,0,0,0,0,-0.0141,-0.0151,-0.016,-0.0201,-0.0214,-0.029,-0.0241,-0.0242,-0.0266,-0.026,-0.0256,-0.0249,-0.0229,-0.0245,-0.025,-0.0247,-0.0224,-0.028,-0.0281,-0.0281,-0.0314,-0.0318,-0.0321,0,0,0,0,0,-0.0137,-0.0174,-0.016,-0.0169,-0.0224,-0.0292,-0.0303,-0.0299,-0.027,-0.0297,-0.0275,-0.0249,-0.0251,-0.0249,-0.0254,-0.0251,-0.028,-0.0281,-0.0281,-0.0313,-0.0317,-0.032,0,0,0,0,0,0,-0.0142,-0.0174,-0.0158,-0.0201,-0.024,-0.0284,-0.0317,-0.0312,-0.0324,-0.0308,-0.0279,-0.0275,-0.0278,-0.0273,-0.027,-0.0268,-0.0253,-0.0255,-0.0275,-0.0279,-0.0282,-0.0277,-0.0225,0,0,0,0,0,-0.0146,-0.0175,-0.0209,-0.0245,-0.0267,-0.0293,-0.032,-0.0321,-0.0337,-0.0339,-0.0328,-0.0309,-0.0295,-0.0292,-0.0289,-0.0317,-0.0276,-0.0309,-0.0313,-0.0315,-0.0314,-0.0273,-0.0272,-0.0284,-0.0284,-0.0284,0,0,-0.0156,-0.018,-0.0194,-0.0247,-0.0277,-0.0314,-0.0301,-0.0355,-0.036,-0.0337,-0.0344,-0.0332,-0.0305,-0.031,-0.0311,-0.0302,-0.0283,-0.0316,-0.0319,-0.0316,-0.0274,-0.0272,-0.0271,-0.0285,-0.0285,-0.0285,0,0,-0.0202,-0.0217,-0.0253,-0.0289,-0.0338,-0.035,-0.0365,-0.0408,-0.0401,-0.0425,-0.0382,-0.0375,-0.0378,-0.0348,-0.0332,-0.0362,-0.0303,-0.0351,-0.0366,-0.0326,-0.0324,-0.0322,-0.0238,-0.0228,-0.0351,-0.0351,-0.0351,0,-0.0209,-0.0253,-0.028,-0.0326,-0.035,-0.0362,-0.0401,-0.0411,-0.0443,-0.0437,-0.0423,-0.0403,-0.0389,-0.0367,-0.0362,-0.0368,-0.0319,-0.0354,-0.0329,-0.0326,-0.0324,-0.0238,-0.0227,-0.0353,-0.0352,-0.0352,-0.0352,0,-0.0279,-0.0309,-0.0346,-0.0382,-0.0415,-0.0465,-0.0473,-0.0486,-0.0472,-0.0469,-0.0459,-0.0446,-0.0426,-0.0416,-0.0397,-0.037,-0.033,-0.0339,-0.0319,-0.0325,-0.0234,-0.0221,-0.0355,-0.0355,-0.0354,-0.0354,0,0,-0.0298,-0.0373,-0.0381,-0.04,-0.0447,-0.0484,-0.049,-0.0503,-0.0493,-0.0501,-0.0486,-0.0468,-0.0458,-0.0439,-0.0416,-0.0383,-0.0316,-0.0353,-0.0351,-0.0267,-0.0185,-0.0184,-0.0169,-0.0318,-0.0317,-0.0316,-0.0117,0,-0.0336,-0.0412,-0.0439,-0.0492,-0.0527,-0.0534,-0.0535,-0.054,-0.0528,-0.0517,-0.0489,-0.0472,-0.0464,-0.045,-0.042,-0.0346,-0.0291,-0.0367,-0.0195,-0.0189,-0.0186,-0.0159,-0.0313,-0.0108,-0.0105,-0.0103,-0.0102,0,-0.0383,-0.0425,-0.0487,-0.0527,-0.0543,-0.0565,-0.0563,-0.0575,-0.055,-0.0538,-0.052,-0.0494,-0.0445,-0.0443,-0.0314,-0.0359,-0.0274,-0.0213,-0.0205,-0.0186,-0.0167,-0.0108,-0.0079,-0.0081,-0.0083,-0.0084,-0.0086,0,-0.0376,-0.0452,-0.0494,-0.0517,-0.0566,-0.0576,-0.0588,-0.0577,-0.0569,-0.0549,-0.0524,-0.0483,-0.0435,-0.0356,-0.0244,-0.0266,-0.0086,-0.0101,-0.0009,-0.0005,-0.005,-0.0054,-0.0,-0.0001,-0.0001,-0.0002,-0.0002,0,-0.0401,-0.0438,-0.0493,-0.0524,-0.0554,-0.0583,-0.0594,-0.0597,-0.0577,-0.0561,-0.0536,-0.0493,-0.0411,-0.0307,-0.0222,-0.007,-0.0062,0.0006,0.0039,-0.0064,-0.0073,-0.0038,-0.0045,0.0006,0.0004,0.0003,0.0001,0,-0.04,-0.0438,-0.0493,-0.0546,-0.0559,-0.0581,-0.0599,-0.0598,-0.0577,-0.0549,-0.0537,-0.0462,-0.0338,-0.0236,-0.0078,-0.0021,0.0104,0.0159,0.0082,0.0105,0.0165,0.0154,0.0293,0.0294,0.0296,0.0297,0.0298,0,-0.0415,-0.0443,-0.0507,-0.0535,-0.0566,-0.0593,-0.0603,-0.0599,-0.0589,-0.0526,-0.0502,-0.0382,-0.0326,-0.0077,0.0002,0.0183,0.0188,0.0275,0.0176,0.0173,0.0192,0.0179,0.0166,0.03,0.03,0.0301,0.0301,0,-0.0443,-0.0461,-0.0504,-0.0555,-0.0583,-0.0608,-0.0619,-0.0592,-0.0575,-0.0545,-0.0441,-0.0336,-0.0188,-0.0058,0.0087,0.02,0.0217,0.0289,0.0286,0.0194,0.0183,0.0198,0.0184,0.0305,0.0305,0.0304,0.0304,0,-0.0459,-0.0486,-0.0536,-0.0579,-0.0617,-0.0628,-0.0619,-0.0584,-0.0554,-0.0472,-0.0432,-0.0299,-0.0218,-0.0043,0.0081,0.0194,0.0207,0.0232,0.0233,0.0229,0.0116,0.0087,0.0224,0,0,0,0,0,-0.0476,-0.051,-0.0559,-0.0605,-0.064,-0.0664,-0.0643,-0.062,-0.0568,-0.0491,-0.0458,-0.0328,-0.0138,-0.0056,0.0061,0.0081,0.0207,0.0219,0.0231,0.0331,0.0325,0.0199,0,0,0,0,0,0,-0.0491,-0.0539,-0.0565,-0.0624,-0.0661,-0.0691,-0.0678,-0.0638,-0.0575,-0.0509,-0.0401,-0.0324,-0.0139,-0.0222,0.0047,0.0082,0.0104,0.0312,0.0314,0.0334,0.0329,0.0325,0.0193,0,0,0,0,0]}]]